[[{"header":{"parameterUnit":"m.s-1","parameterCategory":1,"la1":30.2991,"la2":30.254,"lo1":-89.0895,"lo2":-89.0444,"dy":0.0017,"dx":0.0017,"nx":28,"ny":28,"refTime":"2024-03-28T21:00:00:Z","depth":0,"parameterNumber":2,"parameterNumberName":"U-component_of_WINDS"},"data":[0,0,0,0,0,0,0,0,0,0,0,0,0,0,0,0,0,0,0,0,0,0,0,0,0,0,0,0,0,0,0,0,0,0,0,0,0,0,0,0,0,0,0,0,0,0,0,0,0,0,0,0,0,0,0,0,0,0,-2.2725,-2.2726,0,-2.2754,-2.2754,-2.2755,-2.2648,-2.2645,-2.2642,-2.2639,-2.2668,-2.2672,-2.2676,0,0,0,0,0,0,0,0,0,0,0,0,0,-2.2577,-2.2581,-2.2725,-2.2726,-2.2726,-2.2754,-2.2754,-2.2755,-2.2649,-2.2645,-2.2641,-2.2637,-2.2667,-2.2672,-2.2676,0,0,0,0,0,0,0,0,0,0,0,0,0,-2.2628,-2.2582,-2.2725,-2.2676,-2.2672,-2.2754,-2.2754,-2.2755,-2.2649,-2.2645,-2.264,-2.2635,-2.2666,-2.2671,-2.2677,-2.2807,0,0,-2.2694,-2.2696,0,0,0,0,0,0,0,0,-2.2625,-2.2633,-2.2683,-2.268,-2.2675,-2.2693,-2.2713,-2.2772,-2.2651,-2.2658,-2.2639,-2.2633,-2.268,-2.2684,-2.27,-2.2808,-2.2809,-2.2694,-2.2698,-2.27,-2.2702,0,0,0,0,0,0,0,-2.2622,-2.2631,-2.2737,-2.2684,-2.2679,-2.2653,-2.2655,-2.2724,-2.2696,-2.2657,-2.2649,-2.2654,-2.2677,-2.2695,-2.27,-2.281,-2.2694,-2.2699,-2.2703,-2.2705,-2.3026,-2.3031,0,0,0,0,0,0,-2.2625,-2.2629,-2.2736,-2.2737,-2.2638,-2.2659,-2.2661,-2.2692,-2.2695,-2.269,-2.2658,-2.2649,-2.2688,-2.2694,-2.2701,-2.2854,-2.27,-2.2705,-2.2709,-2.3021,-2.3027,-2.3033,0,0,0,0,0,0,-2.2622,-2.2635,-2.2734,-2.2681,-2.2692,-2.2667,-2.2702,-2.2695,-2.2713,-2.2695,-2.269,-2.2682,-2.2684,-2.2693,-2.2781,-2.2854,-2.2708,-2.2713,-2.3015,-2.3023,-2.303,-2.3161,0,0,0,0,0,0,-2.2618,-2.2635,-2.2684,-2.2683,-2.2695,-2.2815,-2.2706,-2.2699,-2.2723,-2.2711,-2.2716,-2.2712,-2.2681,-2.2773,-2.2787,-2.2859,-2.2717,-2.3008,-2.3018,-2.3027,-2.3151,-2.3173,-2.3192,0,0,0,0,0,-2.2613,-2.272,-2.2687,-2.2701,-2.2757,-2.282,-2.2826,-2.2788,-2.2729,-2.2779,-2.2767,-2.2712,-2.2843,-2.2783,-2.2798,-2.2872,-2.3004,-2.3015,-2.3027,-2.3141,-2.3168,-2.3191,0,0,0,0,0,0,-2.273,-2.2719,-2.2683,-2.2792,-2.2808,-2.2801,-2.2863,-2.2818,-2.2851,-2.2839,-2.279,-2.2792,-2.2889,-2.2889,-2.2823,-2.2998,-2.2913,-2.2928,-2.2995,-2.3021,-2.3041,-2.304,-2.2722,0,0,0,0,0,-2.2769,-2.2821,-2.2808,-2.2906,-2.2916,-2.2889,-2.2914,-2.2884,-2.2898,-2.2904,-2.2899,-2.2915,-2.2959,-2.2989,-2.3029,-2.3149,-2.3149,-2.3207,-2.3228,-2.3245,-2.3259,-2.3323,-2.3349,-2.3071,-2.3071,-2.307,0,0,-2.285,-2.285,-2.2886,-2.293,-2.2938,-2.2994,-2.2895,-2.2957,-2.2998,-2.2913,-2.2997,-2.2994,-2.3008,-2.3113,-2.3159,-2.3116,-2.3335,-2.326,-2.3273,-2.3278,-2.3337,-2.3364,-2.3387,-2.3079,-2.3077,-2.3076,0,0,-2.3025,-2.303,-2.3113,-2.3123,-2.3137,-2.3117,-2.3137,-2.3138,-2.3132,-2.3215,-2.3153,-2.32,-2.3278,-2.329,-2.3307,-2.3486,-2.3437,-2.3501,-2.3609,-2.3672,-2.3694,-2.3713,-2.3778,-2.3802,-2.3514,-2.3515,-2.3515,0,-2.3123,-2.3205,-2.3161,-2.3228,-2.3249,-2.3175,-2.3258,-2.327,-2.3296,-2.3313,-2.3264,-2.336,-2.3364,-2.3471,-2.3515,-2.353,-2.3552,-2.3501,-2.3694,-2.3713,-2.373,-2.3792,-2.3816,-2.3522,-2.3521,-2.3521,-2.352,0,-2.3325,-2.3383,-2.3447,-2.3475,-2.3503,-2.3579,-2.3546,-2.358,-2.3546,-2.3532,-2.3618,-2.362,-2.3659,-2.3681,-2.3649,-2.3785,-2.3757,-2.3702,-2.3616,-2.3765,-2.3822,-2.3845,-2.3533,-2.3531,-2.3528,-2.3526,0,0,-2.3577,-2.3579,-2.3604,-2.3616,-2.3625,-2.3668,-2.3739,-2.3778,-2.3808,-2.3828,-2.3887,-2.3954,-2.3903,-2.3922,-2.389,-2.3945,-2.4088,-2.3883,-2.3882,-2.3922,-2.4238,-2.4282,-2.431,-2.4055,-2.4059,-2.4062,-2.4238,0,-2.3751,-2.3873,-2.3836,-2.3959,-2.4012,-2.3941,-2.4003,-2.4015,-2.4004,-2.4046,-2.4033,-2.4082,-2.4009,-2.4021,-2.4072,-2.406,-2.4151,-2.4047,-2.411,-2.4113,-2.4111,-2.4339,-2.4385,-2.455,-2.426,-2.4263,-2.4266,0,-2.397,-2.3999,-2.4129,-2.4129,-2.4149,-2.4206,-2.4238,-2.428,-2.4292,-2.4279,-2.4301,-2.4257,-2.4327,-2.4239,-2.4335,-2.4264,-2.4287,-2.4286,-2.4291,-2.4297,-2.42,-2.4353,-2.4602,-2.4628,-2.43,-2.4298,-2.4295,0,-2.4143,-2.4214,-2.4301,-2.4313,-2.4315,-2.4357,-2.4359,-2.4367,-2.4392,-2.442,-2.4436,-2.4471,-2.4491,-2.452,-2.4487,-2.4426,-2.4588,-2.4497,-2.458,-2.4581,-2.4619,-2.4618,-2.4878,-2.4632,-2.4631,-2.4631,-2.463,0,-2.4342,-2.4424,-2.4378,-2.4432,-2.4522,-2.4477,-2.4567,-2.4562,-2.4569,-2.462,-2.456,-2.4609,-2.4562,-2.4607,-2.4581,-2.4665,-2.4674,-2.4666,-2.4659,-2.4673,-2.4674,-2.4689,-2.4677,-2.4637,-2.4636,-2.4635,-2.4633,0,-2.4551,-2.4524,-2.4614,-2.4608,-2.4609,-2.4675,-2.467,-2.472,-2.4703,-2.4768,-2.4781,-2.4755,-2.4805,-2.4774,-2.4825,-2.4807,-2.4917,-2.4893,-2.4914,-2.4908,-2.4993,-2.4987,-2.5273,-2.5309,-2.5039,-2.5041,-2.5043,0,-2.4681,-2.4742,-2.4743,-2.4773,-2.478,-2.4829,-2.4855,-2.4813,-2.4842,-2.486,-2.4907,-2.4952,-2.4985,-2.5068,-2.5053,-2.5091,-2.5069,-2.5166,-2.5074,-2.5087,-2.5072,-2.507,-2.5076,-2.5186,-2.5189,-2.5192,-2.5194,0,-2.4914,-2.4898,-2.4937,-2.4972,-2.5005,-2.503,-2.5051,-2.5078,-2.5036,-2.5072,-2.5122,-2.5148,-2.5199,-2.5244,-2.5276,-2.5278,-2.523,-2.5223,-2.5244,-2.526,-2.527,-2.5268,-2.4966,-2.5217,-2.5215,-2.5213,-2.5212,-2.5211,-2.5089,-2.514,-2.515,-2.5196,-2.5206,-2.5227,-2.5273,-2.5262,-2.5303,-2.5342,-2.5314,-2.5374,-2.5383,-2.5421,-2.543,-2.5475,-2.5436,-2.5467,-2.5475,-2.5484,-2.5496,-2.5262,-2.5481,-2.548,-2.5479,-2.5479,-2.5478,0,-2.5321,-2.5323,-2.5365,-2.5396,-2.5432,-2.5382,-2.5402,-2.5436,-2.5489,-2.5503,-2.5537,-2.5594,-2.5638,-2.5626,-2.5665,-2.5704,-2.5683,-2.5716,-2.5713,-2.5715,-2.5529,-2.5507,-2.5732,-2.5732,-2.5732,-2.5732,-2.5732,-2.5732,-2.5446,-2.5531,-2.5515,-2.5605,-2.5606,-2.5665,-2.568,-2.5699,-2.5709,-2.5776,-2.5812,-2.5804,-2.5808,-2.5846,-2.5883,-2.5879,-2.5897,-2.5938,-2.5926,-2.5753,-2.5728,-2.5704,-2.5683,-2.5942,-2.5942,-2.6108,-2.611,-2.6111]},{"header":{"parameterUnit":"m.s-1","parameterCategory":1,"la1":30.2991,"la2":30.254,"lo1":-89.0895,"lo2":-89.0444,"dy":0.0017,"dx":0.0017,"nx":28,"ny":28,"refTime":"2024-03-28T21:00:00:Z","depth":0,"parameterNumber":3,"parameterNumberName":"V-component_of_WINDS"},"data":[0,0,0,0,0,0,0,0,0,0,0,0,0,0,0,0,0,0,0,0,0,0,0,0,0,0,0,0,0,0,0,0,0,0,0,0,0,0,0,0,0,0,0,0,0,0,0,0,0,0,0,0,0,0,0,0,0,0,-2.5558,-2.5558,0,-2.5632,-2.5633,-2.5634,-2.5621,-2.562,-2.5618,-2.5617,-2.569,-2.5694,-2.5697,0,0,0,0,0,0,0,0,0,0,0,0,0,-2.54,-2.5403,-2.5558,-2.5559,-2.5559,-2.5632,-2.5633,-2.5634,-2.5621,-2.562,-2.5618,-2.5617,-2.5689,-2.5693,-2.5697,0,0,0,0,0,0,0,0,0,0,0,0,0,-2.5471,-2.5404,-2.5557,-2.5562,-2.5563,-2.5632,-2.5633,-2.5635,-2.5622,-2.562,-2.5618,-2.5616,-2.5688,-2.5693,-2.5698,-2.5766,0,0,-2.5712,-2.5714,0,0,0,0,0,0,0,0,-2.5467,-2.5477,-2.556,-2.5562,-2.5563,-2.5616,-2.5605,-2.5679,-2.5622,-2.5599,-2.5617,-2.5615,-2.5667,-2.5673,-2.5691,-2.5769,-2.5773,-2.5712,-2.5715,-2.5717,-2.5719,0,0,0,0,0,0,0,-2.5462,-2.5473,-2.5587,-2.5561,-2.5563,-2.5559,-2.5567,-2.5619,-2.5643,-2.5601,-2.56,-2.561,-2.5667,-2.5687,-2.5693,-2.5774,-2.5712,-2.5717,-2.5719,-2.5721,-2.5911,-2.5913,0,0,0,0,0,0,-2.5456,-2.5469,-2.5585,-2.5589,-2.5509,-2.5563,-2.5572,-2.5601,-2.5642,-2.5647,-2.5611,-2.5609,-2.568,-2.5688,-2.5696,-2.5778,-2.5717,-2.5722,-2.5724,-2.5909,-2.5911,-2.5914,0,0,0,0,0,0,-2.5453,-2.5467,-2.5582,-2.5529,-2.5544,-2.5568,-2.56,-2.5603,-2.5623,-2.565,-2.5654,-2.5627,-2.5679,-2.5689,-2.5749,-2.5781,-2.5724,-2.5728,-2.5906,-2.5909,-2.5912,-2.5944,0,0,0,0,0,0,-2.5448,-2.5466,-2.5493,-2.553,-2.5546,-2.5635,-2.5602,-2.5606,-2.5631,-2.5629,-2.5666,-2.567,-2.5678,-2.5742,-2.5753,-2.5786,-2.5732,-2.5903,-2.5907,-2.5911,-2.594,-2.5948,-2.5955,0,0,0,0,0,-2.5443,-2.5498,-2.5494,-2.5508,-2.5581,-2.5637,-2.5646,-2.5654,-2.5634,-2.5661,-2.5678,-2.5669,-2.5775,-2.5748,-2.5761,-2.5796,-2.5901,-2.5906,-2.5911,-2.5937,-2.5947,-2.5955,0,0,0,0,0,0,-2.5463,-2.5503,-2.5499,-2.5568,-2.5599,-2.5634,-2.5668,-2.5664,-2.5701,-2.5697,-2.5705,-2.5713,-2.5774,-2.5791,-2.5759,-2.5864,-2.5835,-2.5843,-2.5851,-2.586,-2.5867,-2.5861,-2.5736,0,0,0,0,0,-2.5475,-2.5518,-2.5551,-2.5608,-2.5624,-2.5644,-2.5668,-2.5672,-2.5704,-2.5717,-2.5739,-2.5769,-2.5809,-2.5835,-2.5874,-2.5943,-2.595,-2.5973,-2.598,-2.5986,-2.5992,-2.6029,-2.604,-2.593,-2.593,-2.593,0,0,-2.5501,-2.5529,-2.5555,-2.5613,-2.5637,-2.568,-2.5655,-2.5701,-2.5733,-2.5723,-2.5782,-2.5799,-2.5833,-2.5898,-2.5927,-2.5913,-2.6024,-2.5992,-2.5997,-2.6,-2.6036,-2.6046,-2.6055,-2.5933,-2.5932,-2.5932,0,0,-2.5571,-2.5596,-2.5647,-2.5672,-2.571,-2.5723,-2.5735,-2.5771,-2.5782,-2.5841,-2.5834,-2.5871,-2.5941,-2.5965,-2.5987,-2.6066,-2.6058,-2.6078,-2.6115,-2.6151,-2.616,-2.6168,-2.6196,-2.6205,-2.6084,-2.6084,-2.6084,0,-2.5598,-2.5664,-2.5673,-2.5721,-2.5746,-2.5741,-2.5791,-2.5815,-2.5863,-2.588,-2.5864,-2.5951,-2.5974,-2.6044,-2.6063,-2.6081,-2.6094,-2.6074,-2.6158,-2.6166,-2.6173,-2.62,-2.621,-2.6087,-2.6086,-2.6086,-2.6086,0,-2.5695,-2.5741,-2.5777,-2.5825,-2.5854,-2.5903,-2.5919,-2.5947,-2.5949,-2.5963,-2.6022,-2.6049,-2.6093,-2.611,-2.6111,-2.618,-2.617,-2.6157,-2.6128,-2.6186,-2.6211,-2.6221,-2.609,-2.6089,-2.6088,-2.6088,0,0,-2.5779,-2.5832,-2.5845,-2.5866,-2.5908,-2.5942,-2.5991,-2.6035,-2.6059,-2.6092,-2.6132,-2.619,-2.6178,-2.6203,-2.6207,-2.6238,-2.6298,-2.6221,-2.6221,-2.6234,-2.6375,-2.6385,-2.6397,-2.6294,-2.6296,-2.6297,-2.6372,0,-2.5852,-2.5939,-2.5949,-2.6025,-2.6067,-2.6062,-2.6104,-2.6133,-2.6148,-2.6184,-2.6199,-2.6241,-2.6222,-2.6236,-2.6268,-2.6285,-2.6327,-2.6279,-2.633,-2.6332,-2.6322,-2.641,-2.6421,-2.649,-2.6382,-2.6384,-2.6385,0,-2.5949,-2.5987,-2.6068,-2.6103,-2.6121,-2.6159,-2.6199,-2.6235,-2.6268,-2.6276,-2.6303,-2.6303,-2.6352,-2.6322,-2.6388,-2.6356,-2.6377,-2.6388,-2.6391,-2.6396,-2.6362,-2.6417,-2.6513,-2.6523,-2.64,-2.6399,-2.6398,0,-2.6002,-2.6072,-2.613,-2.6148,-2.6191,-2.6218,-2.6236,-2.6267,-2.6293,-2.6328,-2.6345,-2.6385,-2.6407,-2.6437,-2.6447,-2.6425,-2.6513,-2.6484,-2.652,-2.652,-2.6539,-2.6538,-2.6639,-2.6554,-2.6553,-2.6553,-2.6553,0,-2.6083,-2.6132,-2.6154,-2.619,-2.6245,-2.6255,-2.6309,-2.6326,-2.6354,-2.6392,-2.6389,-2.6425,-2.6436,-2.6473,-2.6481,-2.6535,-2.6545,-2.6552,-2.6553,-2.6552,-2.6551,-2.6566,-2.6561,-2.6556,-2.6555,-2.6555,-2.6554,0,-2.6151,-2.6167,-2.623,-2.6265,-2.6275,-2.6315,-2.6344,-2.6378,-2.6392,-2.644,-2.6451,-2.6473,-2.6516,-2.653,-2.6581,-2.6587,-2.6649,-2.6647,-2.6639,-2.6639,-2.6675,-2.6671,-2.6789,-2.6805,-2.6709,-2.671,-2.671,0,-2.6201,-2.6239,-2.6279,-2.6305,-2.6325,-2.6367,-2.6393,-2.6404,-2.6431,-2.6472,-2.65,-2.6543,-2.6578,-2.6648,-2.6667,-2.6707,-2.6705,-2.6743,-2.6711,-2.6708,-2.6705,-2.6702,-2.6706,-2.6749,-2.675,-2.6751,-2.6752,0,-2.6288,-2.6294,-2.6333,-2.6375,-2.6407,-2.644,-2.6472,-2.6493,-2.6508,-2.6539,-2.6584,-2.6612,-2.6665,-2.6708,-2.6748,-2.6766,-2.6761,-2.6762,-2.6773,-2.6771,-2.6765,-2.6769,-2.6655,-2.6759,-2.6759,-2.6758,-2.6758,-2.6757,-2.6349,-2.6382,-2.6416,-2.6459,-2.6484,-2.6514,-2.6548,-2.6566,-2.6604,-2.6649,-2.6653,-2.6702,-2.6732,-2.6786,-2.6806,-2.6844,-2.6832,-2.6848,-2.6851,-2.6855,-2.6858,-2.676,-2.6851,-2.6851,-2.6851,-2.685,-2.685,0,-2.6435,-2.6457,-2.6496,-2.6542,-2.6575,-2.6569,-2.6604,-2.6632,-2.6676,-2.6705,-2.674,-2.6792,-2.6833,-2.6856,-2.6897,-2.6922,-2.6921,-2.6932,-2.693,-2.6935,-2.6866,-2.6852,-2.6933,-2.6933,-2.6933,-2.6933,-2.6933,-2.6933,-2.6484,-2.6541,-2.6552,-2.662,-2.6641,-2.669,-2.671,-2.6737,-2.6761,-2.6819,-2.6854,-2.6869,-2.6895,-2.6938,-2.6975,-2.6981,-2.6996,-2.7009,-2.7013,-2.6948,-2.6939,-2.6931,-2.6919,-2.7012,-2.7012,-2.7079,-2.7079,-2.708]}]]